Tracking 28790 objects as of 19-Apr-2024
HD Live streaming from Space Station
objects crossing your sky now

OPS 4682 DEB

Track OPS 4682 DEB now!
10-day predictions


NORAD ID: 29061
Int'l Code: 1965-027BL
Perigee: 1,267.5 km
Apogee: 1,316.0 km
Inclination: 90.2 °
Period: 111.3 minutes
Semi major axis: 7662 km
RCS: 0.0119 m2 (small)
Launch date: April 3, 1965
Source: United States (US)
Launch site: AIR FORCE WESTERN TEST RANGE (AFWTR)

Note: This is SATELLITE DEBRIS
Your satellite tracking list
Your tracking list is empty




NASA's NSSDC Master Catalog

Two Line Element Set (TLE):
1 29061U 65027BL  24110.13899208 -.00000111  00000-0 -42679-3 0  9992
2 29061  90.2468 359.8786 0031646 123.0263  31.7502 12.94271718126326
Source of the keplerian elements: AFSPC